Location: Asbach
(49.7538°N, 11.7064°E)
Time: 08:05:04
(UTC+00:00)

Daily predictions for brighter satellites

Satellite Brightness Start Highest point End
(mag) Time Altitude Azimuth Time Altitude Azimuth Time Altitude Azimuth
Cosmos 2154 Rocket 4.2 16:25:29 10° S 16:31:45 85° W 16:38:01 10° N
SL-16 R/B 2.2 16:26:41 10° NNW 16:32:24 74° ENE 16:38:03 10° SE
Starlink R 3.5 16:31:31 10° WNW 16:34:44 47° N 16:37:56 10° E
Cosmos 1825 Rocket 3.7 16:31:09 10° S 16:35:22 54° E 16:39:37 10° NNE
Starlink K 3.4 16:33:52 10° WNW 16:37:05 48° N 16:40:18 10° E
SL-8 R/B 4.1 16:32:36 10° WSW 16:37:21 59° SSE 16:42:05 10° E
Cosmos 2221 3.9 16:35:17 10° NNE 16:38:18 18° ENE 16:41:17 10° ESE
Starlink M 3.4 16:36:13 10° WNW 16:39:25 48° N 16:42:38 10° E
Cosmos 2082 3.9 16:36:48 10° S 16:42:13 52° ESE 16:47:42 10° NE
Cosmos 2219 3.5 16:38:22 10° SW 16:43:58 69° WNW 16:49:39 10° NNE
Cosmos-2242 2.9 16:40:46 10° N 16:45:06 79° E 16:49:22 10° SSE
Cosmos 1603 4.3 16:40:11 10° NNW 16:45:22 34° NE 16:50:29 10° ESE
YAOGAN 6 2.8 16:42:29 10° SE 16:46:00 46° ENE 16:49:30 10° N
Cosmos 2297 Rocket 2.3 16:40:32 10° SSW 16:46:12 88° WNW 16:51:55 10° NNE
Cosmos 2366 rocket 4.3 16:42:27 10° SSE 16:48:22 48° E 16:54:23 10° NNE
IRS-1C Rocket 4.4 16:43:27 10° S 16:48:42 74° WSW 16:53:59 10° NNW
CZ-4B R/B 4.0 16:47:07 10° NNW 16:49:16 18° WNW 16:51:24 10° WSW
Cosmos 1939 Rocket 4.0 16:47:01 10° ESE 16:50:08 22° ENE 16:53:17 10° NNE
Cosmos 2263 Rocket 3.8 16:48:46 10° SE 16:51:35 14° E 16:54:02 11° ENE
NOAA 12 4.1 16:46:35 10° SSE 16:51:49 87° ENE 16:57:07 10° NNW
Okean O Rocket 4.1 16:49:56 10° SSW 16:53:43 27° W 16:57:31 10° NW
H-2A R/B 4.0 16:54:08 10° S 16:57:53 46° W 17:01:41 10° NNW
Cosmos 2227 Rocket 2.4 16:54:10 10° SSW 16:59:49 78° WNW 17:05:31 10° NNE
SKYMED 2 4.0 16:57:01 10° NNE 17:01:09 41° E 17:05:15 10° S
Meteor 1-27 4.5 16:57:11 10° N 17:02:32 44° ENE 17:07:51 10° SE
Okean-O 2.6 17:01:13 10° SSE 17:05:40 89° W 17:10:07 10° NNW
Cosmos 1943 3.6 17:08:39 10° NNW 17:14:00 42° NE 17:19:20 10° ESE
Cosmos 2251 Rocket 3.9 17:10:46 10° NNW 17:16:04 71° WSW 17:21:22 10° SSE
YAOGAN 1 2.7 17:12:26 10° SSE 17:16:38 53° ENE 17:20:53 10° N
Cosmos 1727 Rocket 3.9 17:10:36 10° N 17:16:47 69° ENE 17:22:55 10° SSE
Starlink T 3.0 17:14:57 10° WNW 17:18:10 62° NNE 17:19:57 23° E
Starlink N 3.0 17:17:03 10° WNW 17:20:17 63° NNE 17:22:00 25° E
SL-8 Rocket 4.1 17:14:12 10° S 17:20:31 85° W 17:26:49 10° N
Starlink AS 2.7 17:18:44 10° WNW 17:21:39 63° NNE 17:22:58 28° E
Starlink BA 2.7 17:18:56 10° WNW 17:21:52 63° NNE 17:23:10 28° E
Starlink AU 2.7 17:19:11 10° WNW 17:22:05 63° NNE 17:23:24 28° E
Starlink AT 2.7 17:19:24 10° WNW 17:22:20 63° NNE 17:23:37 29° E
Starlink BB 2.7 17:19:36 10° WNW 17:22:32 63° NNE 17:23:49 29° E
Starlink Q 3.0 17:19:25 10° WNW 17:22:39 64° NNE 17:24:16 26° E
Starlink BC 2.7 17:19:50 10° WNW 17:22:45 64° NNE 17:24:02 29° E
Starlink BK 2.7 17:20:04 10° WNW 17:22:59 64° NNE 17:24:15 29° E
Starlink AY 2.7 17:20:18 10° WNW 17:23:13 64° NNE 17:24:29 29° E
Starlink AW 2.7 17:20:31 10° WNW 17:23:27 64° NNE 17:24:42 30° E
Starlink BJ 2.7 17:20:44 10° WNW 17:23:39 64° NNE 17:24:54 30° E
Starlink AV 2.7 17:20:58 10° WNW 17:23:53 64° NNE 17:25:08 30° E
Starlink BD 2.7 17:21:12 10° WNW 17:24:08 65° NNE 17:25:21 30° E
Starlink BE 2.7 17:21:22 10° WNW 17:24:19 65° NNE 17:25:34 30° E
Envisat 3.8 17:19:28 10° S 17:24:26 54° W 17:29:27 10° NNW
Starlink BM 2.7 17:21:39 10° WNW 17:24:34 65° NNE 17:25:46 31° E
Cosmos 1328 3.9 17:20:45 10° SSW 17:24:46 82° W 17:28:49 10° N
Starlink AX 2.7 17:21:53 10° WNW 17:24:48 65° NNE 17:25:59 31° E
Starlink P 3.0 17:21:38 10° WNW 17:24:51 65° NNE 17:26:23 28° E
USA 267 3.3 17:19:15 15° ENE 17:24:57 90° SSE 17:31:31 10° WSW
Starlink BH 2.7 17:22:05 10° WNW 17:25:01 65° NNE 17:26:12 31° E
H-2A R/B 3.2 17:24:06 20° ENE 17:25:07 21° ENE 17:28:54 10° N
Starlink AZ 2.7 17:22:19 10° WNW 17:25:14 65° NNE 17:26:25 31° E
Starlink BG 2.7 17:22:33 10° WNW 17:25:28 66° NNE 17:26:39 31° E
Starlink BF 2.7 17:22:46 10° WNW 17:25:41 66° NNE 17:26:51 32° E
Starlink BL 2.7 17:22:57 10° WNW 17:25:54 66° NNE 17:27:05 31° E
Starlink AH 2.7 17:23:14 10° WNW 17:26:09 66° NNE 17:27:17 32° E
Starlink AC 2.7 17:23:27 10° WNW 17:26:23 66° NNE 17:27:31 32° E
Starlink X 2.7 17:23:40 10° WNW 17:26:36 66° NNE 17:27:43 33° E
CSL-04 Debris 4.1 17:21:27 10° SSE 17:26:47 67° ENE 17:32:11 10° N
Starlink AE 2.7 17:23:51 10° WNW 17:26:48 67° NNE 17:27:59 32° E
Starlink U 2.9 17:23:49 10° WNW 17:27:03 67° NNE 17:28:30 29° E
Starlink Z 2.7 17:24:08 10° WNW 17:27:03 67° NNE 17:28:10 33° E
Starlink AQ 2.7 17:24:08 10° WNW 17:27:03 67° NNE 17:28:10 33° E
Starlink AK 2.7 17:24:20 10° WNW 17:27:15 67° NNE 17:28:22 33° E
Starlink AL 2.7 17:24:34 10° WNW 17:27:29 67° NNE 17:28:35 34° E
Starlink AD 2.7 17:24:48 10° WNW 17:27:43 67° NNE 17:28:48 34° E
Starlink Y 2.7 17:25:15 10° WNW 17:28:11 68° NNE 17:29:15 34° E
Starlink AG 2.7 17:25:28 10° WNW 17:28:24 68° NNE 17:29:27 34° E
Starlink W 2.7 17:25:39 10° WNW 17:28:37 68° NNE 17:29:42 34° E
Starlink AJ 2.7 17:25:54 10° WNW 17:28:50 68° NNE 17:29:53 35° E
Starlink B 2.9 17:26:02 10° WNW 17:29:16 68° NNE 17:30:38 31° E
Starlink AM 2.6 17:26:21 10° WNW 17:29:17 68° NNE 17:30:18 36° E
Starlink AP 2.6 17:26:35 10° WNW 17:29:31 69° NNE 17:30:32 36° E
Starlink AA 2.6 17:26:49 10° WNW 17:29:45 69° NNE 17:30:45 36° E
Starlink AF 2.6 17:27:03 10° WNW 17:29:58 69° NNE 17:30:59 36° E
Starlink AB 2.6 17:27:15 10° WNW 17:30:11 69° NNE 17:31:10 37° E
Starlink AN 2.6 17:27:29 10° WNW 17:30:25 69° NNE 17:31:24 37° E
ISS -3.6 17:28:54 10° W 17:32:17 67° N 17:33:40 32° ENE
Cosmos 44 3.8 17:28:49 10° WSW 17:33:12 50° NW 17:36:49 14° NNE
CZ-4 R/B 1.5 17:29:36 10° SSE 17:33:43 84° WSW 17:37:57 10° NNW
CENTAUR R/B 4.3 17:32:46 10° SE 17:33:27 11° ESE 17:33:27 11° ESE
Cosmos 2084 4.3 17:33:44 10° NNW 17:37:45 33° NNE 17:38:59 28° ENE
ATLAS CENTAUR R/B 3.2 17:37:47 10° WNW 17:41:18 30° WSW 17:44:36 10° S
ATLAS 5 CENTAUR R/B 3.8 17:38:58 10° NW 17:42:24 18° N 17:44:44 14° NNE
Cosmos 407 Rocket 3.5 17:38:12 10° NNW 17:43:28 60° ENE 17:48:36 10° SE
NOSS 3-2 (A) 4.2 17:38:57 10° S 17:43:47 28° ESE 17:45:13 26° E
CSL-04 Rocket 3.7 17:39:06 10° SSE 17:44:38 88° ENE 17:50:14 10° NNW
Cosmos 1190 Rocket 4.1 17:40:03 10° NNW 17:45:17 55° ENE 17:50:25 10° SE
Starlink D 2.8 17:42:25 10° WNW 17:45:42 82° NNE 17:46:27 50° E
Cosmos 1455 4.5 17:42:44 10° NNW 17:45:58 27° W 17:49:10 10° SSW
Cosmos 1703 4.2 17:42:41 10° SSW 17:46:33 49° WNW 17:50:26 10° N
Starlink S 2.8 17:44:42 10° WNW 17:48:00 84° NNE 17:48:39 54° ESE
COSMO-SKYMED 1 2.9 17:44:58 10° N 17:49:19 68° WNW 17:53:37 10° SSW
Meteor 2-2 Rocket 4.3 17:43:25 10° N 17:49:29 72° ENE 17:55:27 10° SSE
Cosmos 1842 Rocket 3.7 17:45:26 10° NNW 17:49:56 77° W 17:54:25 10° S
Starlink AR 2.4 17:47:23 10° WNW 17:50:05 80° SSW 17:50:06 80° SSW
Starlink C 2.8 17:46:59 10° WNW 17:50:16 86° NNE 17:50:50 58° ESE
Starlink E 2.9 17:49:17 10° WNW 17:52:34 88° N 17:53:03 62° ESE
Starlink J 2.9 17:51:36 10° WNW 17:54:53 89° W 17:55:18 67° ESE
Cosmos 1821 Rocket 4.0 17:48:43 10° S 17:54:56 61° E 18:01:07 10° NNE
Starlink V 2.8 17:53:55 10° WNW 17:57:13 87° SSW 17:57:31 71° ESE
Cosmos 676 Rocket 4.3 17:52:45 10° NNW 17:57:53 45° ENE 17:59:31 35° ESE
Shenzhou-11 Module 4.4 17:58:06 10° SW 17:59:33 13° SSW 17:59:58 13° S
Starlink H 2.8 17:56:16 10° WNW 17:59:33 85° SSW 17:59:47 75° SE
USA 234 4.2 17:54:56 10° SSE 18:01:10 46° SW 18:07:25 10° WNW
Meteor 2-12 Rocket 4.4 17:55:21 10° S 18:01:24 90° W 18:07:31 10° N
Starlink F 2.9 17:58:35 10° WNW 18:01:52 82° SSW 18:02:01 79° SSE
Starlink G 2.9 18:00:55 10° WNW 18:04:13 80° SSW 18:04:16 79° S
ERBS 3.9 18:01:44 10° WNW 18:04:29 23° N 18:04:33 23° N
USA 116 3.2 18:05:44 60° NNW 18:06:11 74° WNW 18:09:17 10° SSW
ADEOS Rocket 3.4 17:59:43 10° NNE 18:06:27 59° E 18:13:49 10° S
Starlink L 3.0 18:03:15 10° WNW 18:06:31 77° SW 18:06:31 77° SW
MOS 1 4.4 18:02:55 19° SE 18:06:50 52° ENE 18:12:21 10° N
IRS-1A Rocket 4.2 18:01:38 10° SSE 18:07:16 64° ENE 18:12:50 10° N
Ariane Rocket 2.9 18:02:43 10° SSE 18:07:44 67° ENE 18:12:48 10° N
Starlink A 3.1 18:05:37 10° WNW 18:08:47 73° SW 18:08:47 73° SW
Starlink R 3.2 18:08:00 10° WNW 18:11:04 69° WSW 18:11:04 69° WSW
In-Cosmos 22 Rocket 4.3 18:06:10 10° SSE 18:11:34 48° E 18:13:16 36° NE
CZ-2D R/B 4.0 18:07:50 10° S 18:11:36 54° W 18:15:25 10° NNW
Cosmos 1624 Rocket 4.1 18:08:18 10° S 18:13:23 50° ESE 18:13:51 48° E
Starlink K 3.3 18:10:21 10° WNW 18:13:20 64° WSW 18:13:20 64° WSW
Cosmos 1869 3.2 18:11:32 10° N 18:15:32 87° W 18:18:28 18° S
Starlink M 3.5 18:12:42 10° WNW 18:15:36 60° WSW 18:15:36 60° WSW
Cosmos 2221 3.2 18:12:01 10° NNW 18:16:13 54° W 18:20:24 10° S
Cosmos 614 Rocket 4.2 18:11:06 10° NNW 18:16:18 72° WSW 18:21:30 10° SSE
Cosmos 967 Rocket 4.5 18:12:06 10° NW 18:18:37 69° NE 18:21:05 39° ESE
BREEZE-M DEB (TANK) 4.0 18:03:46 10° W 18:19:36 84° SSW 18:21:13 47° ESE
SL-8 R/B 3.6 18:14:57 10° W 18:19:46 77° S 18:20:30 62° ESE
Cosmos 2123 Rocket 3.9 18:13:43 10° N 18:20:02 70° ENE 18:26:17 10° SSE
Cosmos 1076 Rocket 3.3 18:19:26 10° S 18:23:44 83° E 18:24:11 71° NNE
Cosmos 44 Rocket 3.2 18:19:19 10° SW 18:24:07 80° NW 18:25:12 53° NNE
Cosmos 2227 4.1 18:18:46 10° SSW 18:24:31 86° ESE 18:27:08 34° NNE
Cosmos 1934 Rocket 3.8 18:18:37 10° S 18:24:34 63° E 18:30:33 10° NNE
USA 238 DEB 3.7 18:18:05 10° SSW 18:24:37 58° ESE 18:26:25 45° ENE
USA 238 3.7 18:18:13 10° SSW 18:24:43 58° ESE 18:26:28 45° ENE
Cosmos 1939 Rocket 4.2 18:21:06 10° SSW 18:24:50 40° W 18:28:40 10° NNW
ARGOS 3.2 18:27:20 53° ENE 18:27:20 53° ENE 18:32:19 10° N
BREEZE-M DEB (TANK) 3.9 18:25:03 10° WSW 18:26:22 34° WSW 18:26:22 34° WSW
Cosmos 2056 Rocket 3.4 18:24:17 10° S 18:29:30 65° ESE 18:29:44 64° E
Cosmos 1603 4.5 18:24:15 10° NW 18:29:43 51° WSW 18:35:07 10° S
Cosmos 2297 Rocket 4.2 18:26:43 10° W 18:31:05 22° NW 18:35:28 10° N
CZ-2C R/B 3.4 18:32:12 53° NE 18:32:12 53° NE 18:37:25 10° N
Cosmos 2239 Rocket 4.5 18:25:58 10° S 18:32:18 85° W 18:38:41 10° N
Cosmos 2263 Rocket 2.0 18:29:01 10° SSW 18:34:34 81° ESE 18:35:48 56° NE
Meteor 2-20 4.5 18:33:11 10° N 18:38:35 54° NE 18:38:35 54° NE
Cosmos 2227 Rocket 4.4 18:40:42 10° W 18:44:50 20° NW 18:48:59 10° N
Cosmos 1140 Rocket 3.8 18:40:08 10° NNW 18:45:21 64° WSW 18:47:38 33° S
Cosmos 2058 4.1 18:41:32 10° SSW 18:43:58 34° SSW 18:43:58 34° SSW
ATLAS 5 CENTAUR R/B 3.8 18:42:54 10° NW 18:47:54 84° SW 19:09:27 10° SE
Cosmos 1535 Rocket 4.4 18:42:35 10° S 18:48:57 89° WNW 18:55:24 10° N
SL-24 R/B 4.4 18:50:26 84° NW 18:50:26 84° NW 18:55:46 10° NNW
Cosmos 1943 4.4 18:52:48 10° NW 18:58:04 40° WSW 19:03:00 11° S
H-2A R/B 2.3 19:04:42 62° NW 19:04:42 62° NW 19:09:13 10° NNW
USA 267 3.7 19:06:35 47° NNE 19:07:44 52° NNW 19:14:01 10° W
ATLAS 3B R/B 4.4 19:02:55 10° S 19:04:32 18° S 19:04:32 18° S
ISS -0.6 19:05:54 10° WNW 19:06:37 15° WNW 19:06:37 15° WNW
NOSS 3-2 (C) 4.3 19:11:28 10° SSW 19:14:42 36° SSW 19:14:42 36° SSW
CENTAUR R/B 3.9 19:18:28 10° SSW 19:20:42 25° SSW 19:20:42 25° SSW
ATLAS 5 CENTAUR R/B 4.0 19:24:02 10° NNW 19:26:17 21° NNW 19:26:17 21° NNW
NOSS 3-2 (A) 4.0 19:28:08 10° SW 19:32:40 54° WSW 19:32:40 54° WSW
Cosmos 2082 Rocket 4.5 19:29:55 10° N 19:30:52 13° N 19:30:52 13° N
Cosmos 2263 Rocket 4.4 20:14:43 10° W 20:17:33 21° WNW 20:17:33 21° WNW
